Time,TemperatureF,DewpointF,PressureIn,WindDirection,WindDirectionDegrees,WindSpeedMPH,WindSpeedGustMPH,Humidity,HourlyPrecipIn,Conditions,Clouds,dailyrainin,SoftwareType,DateUTC
2013-01-18 00:01:00,46.5,33.8,30.46,North,352,1.0,2.0,61,0.00,,---,0.00,VWS V14.01,2013-01-18 06:01:00,
2013-01-18 00:06:00,46.4,34.1,30.46,NNE,30,1.0,3.0,62,0.00,,---,0.00,VWS V14.01,2013-01-18 06:06:00,
2013-01-18 00:11:00,46.3,34.0,30.46,North,354,2.0,3.0,62,0.00,,---,0.00,VWS V14.01,2013-01-18 06:11:00,
2013-01-18 00:16:00,46.2,33.9,30.46,NW,322,1.0,3.0,62,0.00,,---,0.00,VWS V14.01,2013-01-18 06:16:00,
2013-01-18 00:21:00,46.1,33.8,30.46,ENE,63,1.0,3.0,62,0.00,,---,0.00,VWS V14.01,2013-01-18 06:21:00,
2013-01-18 00:26:00,46.1,33.8,30.46,North,358,2.0,3.0,62,0.00,,---,0.00,VWS V14.01,2013-01-18 06:26:00,
2013-01-18 00:31:00,46.0,33.7,30.46,NNW,347,0.0,2.0,62,0.00,,---,0.00,VWS V14.01,2013-01-18 06:31:00,
2013-01-18 00:36:00,45.9,34.0,30.46,North,354,1.0,2.0,63,0.00,,---,0.00,VWS V14.01,2013-01-18 06:36:00,
2013-01-18 00:41:00,45.8,33.9,30.46,NNW,338,0.0,2.0,63,0.00,,---,0.00,VWS V14.01,2013-01-18 06:41:00,
2013-01-18 00:46:00,45.6,33.8,30.46,North,360,0.0,2.0,63,0.00,,---,0.00,VWS V14.01,2013-01-18 06:46:00,
2013-01-18 00:51:00,45.5,33.7,30.46,NNW,340,0.0,2.0,63,0.00,,---,0.00,VWS V14.01,2013-01-18 06:51:00,
2013-01-18 00:56:00,45.4,34.0,30.46,NNW,335,0.0,2.0,64,0.00,,---,0.00,VWS V14.01,2013-01-18 06:56:00,
2013-01-18 01:01:00,45.3,33.9,30.46,NNW,338,0.0,0.0,64,0.00,,---,0.00,VWS V14.01,2013-01-18 07:01:00,
2013-01-18 01:06:00,45.1,33.7,30.46,NNW,331,0.0,1.0,64,0.00,,---,0.00,VWS V14.01,2013-01-18 07:06:00,
2013-01-18 01:11:00,45.1,33.7,30.46,North,352,0.0,1.0,64,0.00,,---,0.00,VWS V14.01,2013-01-18 07:11:00,
2013-01-18 01:16:00,45.0,34.0,30.46,NNW,337,1.0,2.0,65,0.00,,---,0.00,VWS V14.01,2013-01-18 07:16:00,
2013-01-18 01:21:00,44.9,33.9,30.47,North,5,0.0,2.0,65,0.00,,---,0.00,VWS V14.01,2013-01-18 07:21:00,
2013-01-18 01:26:00,44.8,33.8,30.47,North,352,0.0,2.0,65,0.00,,---,0.00,VWS V14.01,2013-01-18 07:26:00,
2013-01-18 01:31:00,44.6,33.6,30.47,NNW,346,1.0,1.0,65,0.00,,---,0.00,VWS V14.01,2013-01-18 07:31:00,
2013-01-18 01:36:00,44.4,33.8,30.47,North,356,1.0,1.0,66,0.00,,---,0.00,VWS V14.01,2013-01-18 07:36:00,
2013-01-18 01:41:00,44.2,33.6,30.47,North,352,0.0,1.0,66,0.00,,---,0.00,VWS V14.01,2013-01-18 07:41:00,
2013-01-18 01:46:00,44.1,33.5,30.47,NNE,26,0.0,2.0,66,0.00,,---,0.00,VWS V14.01,2013-01-18 07:46:00,
2013-01-18 01:51:00,44.3,33.3,30.47,North,5,0.0,2.0,65,0.00,,---,0.00,VWS V14.01,2013-01-18 07:51:00,
2013-01-18 01:56:00,44.4,33.4,30.47,North,356,0.0,2.0,65,0.00,,---,0.00,VWS V14.01,2013-01-18 07:56:00,
2013-01-18 02:01:00,44.4,33.4,30.47,North,360,1.0,1.0,65,0.00,,---,0.00,VWS V14.01,2013-01-18 08:01:00,
2013-01-18 02:06:00,44.1,33.1,30.47,NW,323,1.0,1.0,65,0.00,,---,0.00,VWS V14.01,2013-01-18 08:06:00,
2013-01-18 02:11:00,43.9,33.3,30.47,NW,326,0.0,1.0,66,0.00,,---,0.00,VWS V14.01,2013-01-18 08:11:00,
2013-01-18 02:16:00,43.7,33.5,30.47,NW,319,0.0,2.0,67,0.00,,---,0.00,VWS V14.01,2013-01-18 08:16:00,
2013-01-18 02:21:00,43.5,33.3,30.47,NNW,333,1.0,2.0,67,0.00,,---,0.00,VWS V14.01,2013-01-18 08:21:00,
2013-01-18 02:26:00,43.3,33.1,30.47,North,354,1.0,2.0,67,0.00,,---,0.00,VWS V14.01,2013-01-18 08:26:00,
2013-01-18 02:31:00,43.3,33.5,30.47,NW,315,1.0,1.0,68,0.00,,---,0.00,VWS V14.01,2013-01-18 08:31:00,
2013-01-18 02:36:00,43.2,33.4,30.47,North,359,0.0,2.0,68,0.00,,---,0.00,VWS V14.01,2013-01-18 08:36:00,
2013-01-18 02:41:00,43.0,33.2,30.47,North,360,0.0,2.0,68,0.00,,---,0.00,VWS V14.01,2013-01-18 08:41:00,
2013-01-18 02:46:00,42.8,33.0,30.47,North,352,0.0,2.0,68,0.00,,---,0.00,VWS V14.01,2013-01-18 08:46:00,
2013-01-18 02:51:00,42.8,33.0,30.47,NW,326,0.0,2.0,68,0.00,,---,0.00,VWS V14.01,2013-01-18 08:51:00,
2013-01-18 02:56:00,42.9,33.1,30.47,NNW,348,1.0,2.0,68,0.00,,---,0.00,VWS V14.01,2013-01-18 08:56:00,
2013-01-18 03:01:00,43.0,32.8,30.47,NNW,342,1.0,3.0,67,0.00,,---,0.00,VWS V14.01,2013-01-18 09:01:00,
2013-01-18 03:06:00,43.3,33.1,30.47,North,11,1.0,3.0,67,0.00,,---,0.00,VWS V14.01,2013-01-18 09:06:00,
2013-01-18 03:11:00,43.5,32.9,30.47,North,8,0.0,3.0,66,0.00,,---,0.00,VWS V14.01,2013-01-18 09:11:00,
2013-01-18 03:16:00,43.6,33.0,30.47,NNE,19,0.0,4.0,66,0.00,,---,0.00,VWS V14.01,2013-01-18 09:16:00,
2013-01-18 03:21:00,43.6,33.0,30.47,NNE,22,2.0,4.0,66,0.00,,---,0.00,VWS V14.01,2013-01-18 09:21:00,
2013-01-18 03:26:00,43.5,32.9,30.47,North,11,0.0,4.0,66,0.00,,---,0.00,VWS V14.01,2013-01-18 09:26:00,
2013-01-18 03:31:00,43.3,32.7,30.47,North,352,0.0,1.0,66,0.00,,---,0.00,VWS V14.01,2013-01-18 09:31:00,
2013-01-18 03:36:00,43.3,32.7,30.47,North,5,0.0,3.0,66,0.00,,---,0.00,VWS V14.01,2013-01-18 09:36:00,
2013-01-18 03:41:00,43.0,32.4,30.47,North,356,0.0,3.0,66,0.00,,---,0.00,VWS V14.01,2013-01-18 09:41:00,
2013-01-18 03:46:00,42.8,32.6,30.47,North,352,0.0,3.0,67,0.00,,---,0.00,VWS V14.01,2013-01-18 09:46:00,
2013-01-18 03:51:00,42.7,32.5,30.47,NW,304,1.0,3.0,67,0.00,,---,0.00,VWS V14.01,2013-01-18 09:51:00,
2013-01-18 03:56:00,42.5,32.3,30.47,NNW,341,0.0,3.0,67,0.00,,---,0.00,VWS V14.01,2013-01-18 09:56:00,
2013-01-18 04:01:00,42.3,32.5,30.47,NNW,338,1.0,1.0,68,0.00,,---,0.00,VWS V14.01,2013-01-18 10:01:00,
2013-01-18 04:06:00,42.2,32.4,30.47,NNW,347,1.0,2.0,68,0.00,,---,0.00,VWS V14.01,2013-01-18 10:06:00,
2013-01-18 04:11:00,42.0,32.2,30.47,NNW,333,0.0,2.0,68,0.00,,---,0.00,VWS V14.01,2013-01-18 10:11:00,
2013-01-18 04:16:00,41.6,32.2,30.47,NNW,345,1.0,2.0,69,0.00,,---,0.00,VWS V14.01,2013-01-18 10:16:00,
2013-01-18 04:21:00,41.3,32.3,30.47,NNW,342,0.0,2.0,70,0.00,,---,0.00,VWS V14.01,2013-01-18 10:21:00,
2013-01-18 04:26:00,41.2,32.2,30.47,North,349,0.0,2.0,70,0.00,,---,0.00,VWS V14.01,2013-01-18 10:26:00,
2013-01-18 04:31:00,41.1,32.1,30.46,NNW,345,0.0,1.0,70,0.00,,---,0.00,VWS V14.01,2013-01-18 10:31:00,
2013-01-18 04:36:00,40.9,32.2,30.47,North,356,0.0,1.0,71,0.00,,---,0.00,VWS V14.01,2013-01-18 10:36:00,
2013-01-18 04:41:00,40.8,32.1,30.47,North,350,0.0,2.0,71,0.00,,---,0.00,VWS V14.01,2013-01-18 10:41:00,
2013-01-18 04:46:00,40.8,32.1,30.46,NNW,335,0.0,2.0,71,0.00,,---,0.00,VWS V14.01,2013-01-18 10:46:00,
2013-01-18 04:51:00,40.9,32.2,30.46,North,358,2.0,2.0,71,0.00,,---,0.00,VWS V14.01,2013-01-18 10:51:00,
2013-01-18 04:56:00,40.9,32.2,30.46,NNE,13,0.0,3.0,71,0.00,,---,0.00,VWS V14.01,2013-01-18 10:56:00,
2013-01-18 05:01:00,41.0,32.0,30.46,North,358,0.0,1.0,70,0.00,,---,0.00,VWS V14.01,2013-01-18 11:01:00,
2013-01-18 05:06:00,41.1,32.1,30.46,NW,321,0.0,2.0,70,0.00,,---,0.00,VWS V14.01,2013-01-18 11:06:00,
2013-01-18 05:11:00,40.9,31.9,30.47,NNW,340,1.0,2.0,70,0.00,,---,0.00,VWS V14.01,2013-01-18 11:11:00,
2013-01-18 05:16:00,40.7,32.0,30.46,NNW,346,1.0,2.0,71,0.00,,---,0.00,VWS V14.01,2013-01-18 11:16:00,
2013-01-18 05:21:00,40.7,32.0,30.46,NW,321,0.0,2.0,71,0.00,,---,0.00,VWS V14.01,2013-01-18 11:21:00,
2013-01-18 05:26:00,40.6,32.0,30.46,NNW,328,1.0,2.0,71,0.00,,---,0.00,VWS V14.01,2013-01-18 11:26:00,
2013-01-18 05:31:00,40.5,31.9,30.46,NW,314,1.0,2.0,71,0.00,,---,0.00,VWS V14.01,2013-01-18 11:31:00,
2013-01-18 05:36:00,40.5,32.2,30.46,North,354,0.0,2.0,72,0.00,,---,0.00,VWS V14.01,2013-01-18 11:36:00,
2013-01-18 05:41:00,40.3,32.0,30.46,NNW,342,0.0,3.0,72,0.00,,---,0.00,VWS V14.01,2013-01-18 11:41:00,
2013-01-18 05:46:00,40.0,31.7,30.46,North,356,0.0,3.0,72,0.00,,---,0.00,VWS V14.01,2013-01-18 11:46:00,
2013-01-18 05:51:00,39.9,32.0,30.46,NNW,338,1.0,3.0,73,0.00,,---,0.00,VWS V14.01,2013-01-18 11:51:00,
2013-01-18 05:56:00,39.9,32.0,30.46,North,356,2.0,3.0,73,0.00,,---,0.00,VWS V14.01,2013-01-18 11:56:00,
2013-01-18 06:01:00,39.9,32.0,30.46,NNW,334,1.0,2.0,73,0.00,,---,0.00,VWS V14.01,2013-01-18 12:01:00,
2013-01-18 06:06:00,39.7,31.8,30.47,NNW,328,0.0,2.0,73,0.00,,---,0.00,VWS V14.01,2013-01-18 12:06:00,
2013-01-18 06:11:00,39.5,31.6,30.47,NNW,345,0.0,2.0,73,0.00,,---,0.00,VWS V14.01,2013-01-18 12:11:00,
2013-01-18 06:16:00,39.5,31.9,30.46,NW,311,0.0,2.0,74,0.00,,---,0.00,VWS V14.01,2013-01-18 12:16:00,
2013-01-18 06:21:00,39.5,31.6,30.47,North,11,1.0,2.0,73,0.00,,---,0.00,VWS V14.01,2013-01-18 12:21:00,
2013-01-18 06:26:00,39.5,31.6,30.47,WNW,301,1.0,2.0,73,0.00,,---,0.00,VWS V14.01,2013-01-18 12:26:00,
2013-01-18 06:31:00,39.5,31.6,30.47,NNW,340,0.0,2.0,73,0.00,,---,0.00,VWS V14.01,2013-01-18 12:31:00,
2013-01-18 06:36:00,39.5,31.6,30.47,West,277,1.0,3.0,73,0.00,,---,0.00,VWS V14.01,2013-01-18 12:36:00,
2013-01-18 06:41:00,39.5,31.6,30.47,NNW,339,1.0,3.0,73,0.00,,---,0.00,VWS V14.01,2013-01-18 12:41:00,
2013-01-18 06:46:00,39.6,31.7,30.47,North,356,0.0,3.0,73,0.00,,---,0.00,VWS V14.01,2013-01-18 12:46:00,
2013-01-18 06:51:00,39.6,31.7,30.47,North,8,0.0,3.0,73,0.00,,---,0.00,VWS V14.01,2013-01-18 12:51:00,
2013-01-18 06:56:00,39.5,31.9,30.47,NW,326,0.0,3.0,74,0.00,,---,0.00,VWS V14.01,2013-01-18 12:56:00,
2013-01-18 07:01:00,39.5,31.9,30.47,NNW,342,2.0,2.0,74,0.00,,---,0.00,VWS V14.01,2013-01-18 13:01:00,
2013-01-18 07:06:00,39.6,31.7,30.47,North,354,0.0,3.0,73,0.00,,---,0.00,VWS V14.01,2013-01-18 13:06:00,
2013-01-18 07:11:00,39.6,31.7,30.47,NNW,333,1.0,3.0,73,0.00,,---,0.00,VWS V14.01,2013-01-18 13:11:00,
2013-01-18 07:16:00,39.7,31.8,30.48,North,6,0.0,3.0,73,0.00,,---,0.00,VWS V14.01,2013-01-18 13:16:00,
2013-01-18 07:21:00,39.7,31.8,30.48,NW,323,0.0,3.0,73,0.00,,---,0.00,VWS V14.01,2013-01-18 13:21:00,
2013-01-18 07:26:00,39.6,31.7,30.48,NNW,333,1.0,3.0,73,0.00,,---,0.00,VWS V14.01,2013-01-18 13:26:00,
2013-01-18 07:31:00,39.7,31.8,30.48,North,352,1.0,1.0,73,0.00,,---,0.00,VWS V14.01,2013-01-18 13:31:00,
2013-01-18 07:36:00,39.7,31.8,30.48,NW,314,1.0,3.0,73,0.00,,---,0.00,VWS V14.01,2013-01-18 13:36:00,
2013-01-18 07:41:00,39.9,32.0,30.48,NNW,347,0.0,3.0,73,0.00,,---,0.00,VWS V14.01,2013-01-18 13:41:00,
2013-01-18 07:46:00,40.2,31.9,30.48,North,11,1.0,3.0,72,0.00,,---,0.00,VWS V14.01,2013-01-18 13:46:00,
2013-01-18 07:51:00,40.6,32.3,30.48,NW,314,1.0,3.0,72,0.00,,---,0.00,VWS V14.01,2013-01-18 13:51:00,
2013-01-18 07:56:00,41.1,32.4,30.48,NNW,332,1.0,3.0,71,0.00,,---,0.00,VWS V14.01,2013-01-18 13:56:00,
2013-01-18 08:01:00,41.7,32.7,30.48,NNW,330,2.0,2.0,70,0.00,,---,0.00,VWS V14.01,2013-01-18 14:01:00,
2013-01-18 08:06:00,42.2,32.8,30.48,NNW,340,1.0,3.0,69,0.00,,---,0.00,VWS V14.01,2013-01-18 14:06:00,
2013-01-18 08:11:00,42.5,32.7,30.48,NNE,13,2.0,3.0,68,0.00,,---,0.00,VWS V14.01,2013-01-18 14:11:00,
2013-01-18 08:16:00,43.0,33.2,30.49,NNE,27,1.0,3.0,68,0.00,,---,0.00,VWS V14.01,2013-01-18 14:16:00,
2013-01-18 08:21:00,43.5,33.3,30.49,NE,43,1.0,3.0,67,0.00,,---,0.00,VWS V14.01,2013-01-18 14:21:00,
2013-01-18 08:26:00,44.0,33.4,30.49,North,8,1.0,3.0,66,0.00,,---,0.00,VWS V14.01,2013-01-18 14:26:00,
2013-01-18 08:31:00,44.4,33.4,30.49,NNW,348,1.0,2.0,65,0.00,,---,0.00,VWS V14.01,2013-01-18 14:31:00,
2013-01-18 08:36:00,44.8,33.8,30.49,NNE,25,3.0,5.0,65,0.00,,---,0.00,VWS V14.01,2013-01-18 14:36:00,
2013-01-18 08:41:00,45.3,33.9,30.49,North,11,3.0,5.0,64,0.00,,---,0.00,VWS V14.01,2013-01-18 14:41:00,
2013-01-18 08:46:00,45.7,33.8,30.49,NNE,20,6.0,6.0,63,0.00,,---,0.00,VWS V14.01,2013-01-18 14:46:00,
2013-01-18 08:51:00,46.4,34.1,30.49,NE,51,2.0,6.0,62,0.00,,---,0.00,VWS V14.01,2013-01-18 14:51:00,
2013-01-18 08:56:00,47.0,34.3,30.49,NNE,27,3.0,6.0,61,0.00,,---,0.00,VWS V14.01,2013-01-18 14:56:00,
2013-01-18 09:01:00,47.9,35.1,30.50,North,7,5.0,5.0,61,0.00,,---,0.00,VWS V14.01,2013-01-18 15:01:00,
2013-01-18 09:06:00,48.6,34.5,30.50,ENE,64,4.0,5.0,58,0.00,,---,0.00,VWS V14.01,2013-01-18 15:06:00,
2013-01-18 09:11:00,48.7,35.0,30.50,NNE,29,4.0,7.0,59,0.00,,---,0.00,VWS V14.01,2013-01-18 15:11:00,
2013-01-18 09:16:00,49.3,34.7,30.50,ENE,58,5.0,8.0,57,0.00,,---,0.00,VWS V14.01,2013-01-18 15:16:00,
2013-01-18 09:21:00,49.4,34.4,30.50,NE,54,3.0,8.0,56,0.00,,---,0.00,VWS V14.01,2013-01-18 15:21:00,
2013-01-18 09:26:00,49.6,34.6,30.50,NE,50,5.0,8.0,56,0.00,,---,0.00,VWS V14.01,2013-01-18 15:26:00,
2013-01-18 09:31:00,49.9,34.8,30.50,NNE,26,6.0,6.0,56,0.00,,---,0.00,VWS V14.01,2013-01-18 15:31:00,
2013-01-18 09:36:00,50.1,34.6,30.50,NE,51,3.0,7.0,55,0.00,,---,0.00,VWS V14.01,2013-01-18 15:36:00,
2013-01-18 09:41:00,50.6,34.6,30.50,East,83,1.0,7.0,54,0.00,,---,0.00,VWS V14.01,2013-01-18 15:41:00,
2013-01-18 09:46:00,51.1,35.0,30.50,NE,44,4.0,7.0,54,0.00,,---,0.00,VWS V14.01,2013-01-18 15:46:00,
2013-01-18 09:51:00,51.3,34.8,30.50,East,93,3.0,7.0,53,0.00,,---,0.00,VWS V14.01,2013-01-18 15:51:00,
2013-01-18 09:56:00,51.6,35.5,30.50,ENE,68,2.0,7.0,54,0.00,,---,0.00,VWS V14.01,2013-01-18 15:56:00,
2013-01-18 10:01:00,52.3,35.2,30.51,NE,44,3.0,6.0,52,0.00,,---,0.00,VWS V14.01,2013-01-18 16:01:00,
2013-01-18 10:06:00,52.5,35.4,30.51,East,97,4.0,6.0,52,0.00,,---,0.00,VWS V14.01,2013-01-18 16:06:00,
2013-01-18 10:11:00,53.6,35.9,30.51,ENE,75,2.0,6.0,51,0.00,,---,0.00,VWS V14.01,2013-01-18 16:11:00,
2013-01-18 10:16:00,54.1,35.9,30.51,ENE,71,2.0,6.0,50,0.00,,---,0.00,VWS V14.01,2013-01-18 16:16:00,
2013-01-18 10:21:00,54.5,36.3,30.51,SE,130,2.0,6.0,50,0.00,,---,0.00,VWS V14.01,2013-01-18 16:21:00,
2013-01-18 10:26:00,55.1,36.3,30.50,SE,141,2.0,6.0,49,0.00,,---,0.00,VWS V14.01,2013-01-18 16:26:00,
2013-01-18 10:31:00,55.5,36.2,30.50,ENE,70,1.0,5.0,48,0.00,,---,0.00,VWS V14.01,2013-01-18 16:31:00,
2013-01-18 10:36:00,55.9,36.5,30.50,East,91,2.0,7.0,48,0.00,,---,0.00,VWS V14.01,2013-01-18 16:36:00,
2013-01-18 10:41:00,56.0,36.1,30.50,East,96,4.0,7.0,47,0.00,,---,0.00,VWS V14.01,2013-01-18 16:41:00,
2013-01-18 10:46:00,56.3,36.9,30.50,SE,128,2.0,7.0,48,0.00,,---,0.00,VWS V14.01,2013-01-18 16:46:00,
2013-01-18 10:51:00,56.9,35.8,30.50,East,89,4.0,7.0,45,0.00,,---,0.00,VWS V14.01,2013-01-18 16:51:00,
2013-01-18 10:56:00,57.1,36.0,30.50,ESE,107,4.0,7.0,45,0.00,,---,0.00,VWS V14.01,2013-01-18 16:56:00,
2013-01-18 11:01:00,57.6,37.0,30.50,SE,131,6.0,9.0,46,0.00,,---,0.00,VWS V14.01,2013-01-18 17:01:00,
2013-01-18 11:06:00,57.9,36.7,30.49,ENE,63,4.0,9.0,45,0.00,,---,0.00,VWS V14.01,2013-01-18 17:06:00,
2013-01-18 11:11:00,58.2,37.0,30.49,East,85,2.0,9.0,45,0.00,,---,0.00,VWS V14.01,2013-01-18 17:11:00,
2013-01-18 11:16:00,58.6,36.8,30.49,East,79,4.0,9.0,44,0.00,,---,0.00,VWS V14.01,2013-01-18 17:16:00,
2013-01-18 11:21:00,58.6,36.2,30.49,SE,130,5.0,9.0,43,0.00,,---,0.00,VWS V14.01,2013-01-18 17:21:00,
2013-01-18 11:26:00,59.0,37.1,30.48,East,98,1.0,9.0,44,0.00,,---,0.00,VWS V14.01,2013-01-18 17:26:00,
2013-01-18 11:31:00,59.2,36.7,30.48,East,85,2.0,3.0,43,0.00,,---,0.00,VWS V14.01,2013-01-18 17:31:00,
2013-01-18 11:36:00,59.5,37.0,30.47,ESE,120,4.0,6.0,43,0.00,,---,0.00,VWS V14.01,2013-01-18 17:36:00,
2013-01-18 11:41:00,59.4,37.5,30.47,East,82,3.0,7.0,44,0.00,,---,0.00,VWS V14.01,2013-01-18 17:41:00,
2013-01-18 11:46:00,59.5,37.0,30.46,East,89,4.0,8.0,43,0.00,,---,0.00,VWS V14.01,2013-01-18 17:46:00,
2013-01-18 11:51:00,59.9,36.8,30.46,ENE,72,3.0,8.0,42,0.00,,---,0.00,VWS V14.01,2013-01-18 17:51:00,
2013-01-18 11:56:00,59.8,36.1,30.45,SSE,160,3.0,8.0,41,0.00,,---,0.00,VWS V14.01,2013-01-18 17:56:00,
2013-01-18 12:01:00,60.0,36.2,30.45,SW,225,3.0,4.0,41,0.00,,---,0.00,VWS V14.01,2013-01-18 18:01:00,
2013-01-18 12:06:00,60.4,36.6,30.45,SE,129,5.0,6.0,41,0.00,,---,0.00,VWS V14.01,2013-01-18 18:06:00,
2013-01-18 12:11:00,60.8,37.0,30.44,WSW,257,2.0,6.0,41,0.00,,---,0.00,VWS V14.01,2013-01-18 18:11:00,
2013-01-18 12:16:00,60.8,35.7,30.44,SE,125,4.0,7.0,39,0.00,,---,0.00,VWS V14.01,2013-01-18 18:16:00,
2013-01-18 12:21:00,60.6,35.5,30.43,WSW,243,6.0,8.0,39,0.00,,---,0.00,VWS V14.01,2013-01-18 18:21:00,
2013-01-18 12:26:00,60.7,35.6,30.43,SSW,207,2.0,8.0,39,0.00,,---,0.00,VWS V14.01,2013-01-18 18:26:00,
2013-01-18 12:31:00,61.0,36.5,30.42,East,90,6.0,6.0,40,0.00,,---,0.00,VWS V14.01,2013-01-18 18:31:00,
2013-01-18 12:36:00,61.3,35.5,30.42,SSE,152,5.0,6.0,38,0.00,,---,0.00,VWS V14.01,2013-01-18 18:36:00,
2013-01-18 12:41:00,60.9,36.4,30.41,South,174,2.0,8.0,40,0.00,,---,0.00,VWS V14.01,2013-01-18 18:41:00,
2013-01-18 12:46:00,61.5,35.7,30.41,SSW,203,7.0,8.0,38,0.00,,---,0.00,VWS V14.01,2013-01-18 18:46:00,
2013-01-18 12:51:00,61.8,36.6,30.40,ESE,119,5.0,8.0,39,0.00,,---,0.00,VWS V14.01,2013-01-18 18:51:00,
2013-01-18 12:56:00,61.9,36.0,30.40,SSE,163,2.0,8.0,38,0.00,,---,0.00,VWS V14.01,2013-01-18 18:56:00,
2013-01-18 13:01:00,61.8,36.6,30.39,ENE,60,1.0,3.0,39,0.00,,---,0.00,VWS V14.01,2013-01-18 19:01:00,
2013-01-18 13:06:00,62.2,36.3,30.39,SSW,204,7.0,8.0,38,0.00,,---,0.00,VWS V14.01,2013-01-18 19:06:00,
2013-01-18 13:11:00,62.4,36.5,30.39,SE,146,4.0,8.0,38,0.00,,---,0.00,VWS V14.01,2013-01-18 19:11:00,
2013-01-18 13:16:00,62.9,34.8,30.38,SE,143,2.0,8.0,35,0.00,,---,0.00,VWS V14.01,2013-01-18 19:16:00,
2013-01-18 13:21:00,62.8,35.5,30.38,ENE,61,2.0,8.0,36,0.00,,---,0.00,VWS V14.01,2013-01-18 19:21:00,
2013-01-18 13:26:00,63.1,35.0,30.38,SSE,155,2.0,8.0,35,0.00,,---,0.00,VWS V14.01,2013-01-18 19:26:00,
2013-01-18 13:31:00,63.2,35.8,30.37,South,188,2.0,5.0,36,0.00,,---,0.00,VWS V14.01,2013-01-18 19:31:00,
2013-01-18 13:36:00,63.0,34.9,30.37,SE,139,3.0,7.0,35,0.00,,---,0.00,VWS V14.01,2013-01-18 19:36:00,
2013-01-18 13:41:00,62.8,35.5,30.36,South,183,2.0,10.0,36,0.00,,---,0.00,VWS V14.01,2013-01-18 19:41:00,
2013-01-18 13:46:00,63.3,35.2,30.36,ESE,115,5.0,10.0,35,0.00,,---,0.00,VWS V14.01,2013-01-18 19:46:00,
2013-01-18 13:51:00,63.3,35.9,30.36,SSE,160,3.0,10.0,36,0.00,,---,0.00,VWS V14.01,2013-01-18 19:51:00,
2013-01-18 13:56:00,63.5,35.4,30.35,WSW,252,4.0,10.0,35,0.00,,---,0.00,VWS V14.01,2013-01-18 19:56:00,
2013-01-18 14:01:00,63.2,35.1,30.35,SSE,160,4.0,5.0,35,0.00,,---,0.00,VWS V14.01,2013-01-18 20:01:00,
2013-01-18 14:06:00,63.3,35.9,30.35,SW,214,6.0,8.0,36,0.00,,---,0.00,VWS V14.01,2013-01-18 20:06:00,
2013-01-18 14:11:00,63.5,36.1,30.35,ESE,111,4.0,8.0,36,0.00,,---,0.00,VWS V14.01,2013-01-18 20:11:00,
2013-01-18 14:16:00,63.9,35.7,30.34,ESE,120,2.0,9.0,35,0.00,,---,0.00,VWS V14.01,2013-01-18 20:16:00,
2013-01-18 14:21:00,64.1,35.2,30.34,SSE,164,5.0,9.0,34,0.00,,---,0.00,VWS V14.01,2013-01-18 20:21:00,
2013-01-18 14:26:00,64.0,35.1,30.34,South,181,5.0,9.0,34,0.00,,---,0.00,VWS V14.01,2013-01-18 20:26:00,
2013-01-18 14:31:00,63.8,34.9,30.33,ESE,113,4.0,4.0,34,0.00,,---,0.00,VWS V14.01,2013-01-18 20:31:00,
2013-01-18 14:36:00,63.6,35.5,30.33,South,179,4.0,9.0,35,0.00,,---,0.00,VWS V14.01,2013-01-18 20:36:00,
2013-01-18 14:41:00,63.7,34.8,30.33,East,84,5.0,9.0,34,0.00,,---,0.00,VWS V14.01,2013-01-18 20:41:00,
2013-01-18 14:46:00,63.9,35.0,30.33,SSE,150,4.0,9.0,34,0.00,,---,0.00,VWS V14.01,2013-01-18 20:46:00,
2013-01-18 14:51:00,63.6,34.7,30.33,WSW,247,1.0,9.0,34,0.00,,---,0.00,VWS V14.01,2013-01-18 20:51:00,
2013-01-18 14:56:00,63.9,35.0,30.33,SE,139,5.0,9.0,34,0.00,,---,0.00,VWS V14.01,2013-01-18 20:56:00,
2013-01-18 15:01:00,64.2,35.3,30.33,ESE,108,4.0,6.0,34,0.00,,---,0.00,VWS V14.01,2013-01-18 21:01:00,
2013-01-18 15:06:00,64.1,35.2,30.33,SSE,162,5.0,7.0,34,0.00,,---,0.00,VWS V14.01,2013-01-18 21:06:00,
2013-01-18 15:11:00,64.2,34.5,30.33,South,190,4.0,7.0,33,0.00,,---,0.00,VWS V14.01,2013-01-18 21:11:00,
2013-01-18 15:16:00,64.3,34.6,30.33,SSW,212,1.0,7.0,33,0.00,,---,0.00,VWS V14.01,2013-01-18 21:16:00,
2013-01-18 15:21:00,64.1,34.4,30.32,ESE,110,5.0,7.0,33,0.00,,---,0.00,VWS V14.01,2013-01-18 21:21:00,
2013-01-18 15:26:00,63.9,34.3,30.32,SW,217,2.0,7.0,33,0.00,,---,0.00,VWS V14.01,2013-01-18 21:26:00,
2013-01-18 15:31:00,64.2,34.5,30.32,South,181,3.0,5.0,33,0.00,,---,0.00,VWS V14.01,2013-01-18 21:31:00,
2013-01-18 15:36:00,64.3,34.6,30.32,South,181,5.0,8.0,33,0.00,,---,0.00,VWS V14.01,2013-01-18 21:36:00,
2013-01-18 15:41:00,64.0,34.3,30.32,SSW,200,3.0,8.0,33,0.00,,---,0.00,VWS V14.01,2013-01-18 21:41:00,
2013-01-18 15:46:00,63.9,34.3,30.32,South,172,2.0,8.0,33,0.00,,---,0.00,VWS V14.01,2013-01-18 21:46:00,
2013-01-18 15:51:00,64.1,34.4,30.32,East,98,3.0,8.0,33,0.00,,---,0.00,VWS V14.01,2013-01-18 21:51:00,
2013-01-18 15:56:00,64.1,34.4,30.32,South,188,4.0,10.0,33,0.00,,---,0.00,VWS V14.01,2013-01-18 21:56:00,
2013-01-18 16:01:00,64.0,33.6,30.32,SSE,168,4.0,7.0,32,0.00,,---,0.00,VWS V14.01,2013-01-18 22:01:00,
2013-01-18 16:06:00,64.0,34.3,30.32,South,170,1.0,7.0,33,0.00,,---,0.00,VWS V14.01,2013-01-18 22:06:00,
2013-01-18 16:11:00,64.3,33.8,30.32,SW,231,1.0,7.0,32,0.00,,---,0.00,VWS V14.01,2013-01-18 22:11:00,
2013-01-18 16:16:00,64.2,33.8,30.32,SSW,203,3.0,8.0,32,0.00,,---,0.00,VWS V14.01,2013-01-18 22:16:00,
2013-01-18 16:21:00,63.9,33.5,30.32,SSW,212,3.0,9.0,32,0.00,,---,0.00,VWS V14.01,2013-01-18 22:21:00,
2013-01-18 16:26:00,63.8,33.4,30.32,East,84,1.0,9.0,32,0.00,,---,0.00,VWS V14.01,2013-01-18 22:26:00,
2013-01-18 16:31:00,63.0,33.5,30.32,SE,141,1.0,4.0,33,0.00,,---,0.00,VWS V14.01,2013-01-18 22:31:00,
2013-01-18 16:36:00,62.5,33.0,30.32,SSE,155,1.0,5.0,33,0.00,,---,0.00,VWS V14.01,2013-01-18 22:36:00,
2013-01-18 16:41:00,61.9,33.2,30.32,SW,231,3.0,5.0,34,0.00,,---,0.00,VWS V14.01,2013-01-18 22:41:00,
2013-01-18 16:46:00,61.6,33.0,30.32,SSW,212,3.0,5.0,34,0.00,,---,0.00,VWS V14.01,2013-01-18 22:46:00,
2013-01-18 16:51:00,61.4,32.8,30.32,South,181,4.0,9.0,34,0.00,,---,0.00,VWS V14.01,2013-01-18 22:51:00,
2013-01-18 16:56:00,61.2,32.6,30.32,SE,138,1.0,9.0,34,0.00,,---,0.00,VWS V14.01,2013-01-18 22:56:00,
2013-01-18 17:01:00,61.2,33.3,30.32,SW,219,2.0,3.0,35,0.00,,---,0.00,VWS V14.01,2013-01-18 23:01:00,
2013-01-18 17:06:00,61.6,33.7,30.32,SSE,165,1.0,3.0,35,0.00,,---,0.00,VWS V14.01,2013-01-18 23:06:00,
2013-01-18 17:11:00,61.8,33.9,30.32,SE,132,2.0,4.0,35,0.00,,---,0.00,VWS V14.01,2013-01-18 23:11:00,
2013-01-18 17:16:00,61.7,33.1,30.32,SW,231,2.0,4.0,34,0.00,,---,0.00,VWS V14.01,2013-01-18 23:16:00,
2013-01-18 17:21:00,61.3,33.4,30.32,SSW,198,0.0,6.0,35,0.00,,---,0.00,VWS V14.01,2013-01-18 23:21:00,
2013-01-18 17:26:00,61.1,33.3,30.32,South,174,2.0,6.0,35,0.00,,---,0.00,VWS V14.01,2013-01-18 23:26:00,
2013-01-18 17:31:00,60.8,33.7,30.32,SE,143,0.0,2.0,36,0.00,,---,0.00,VWS V14.01,2013-01-18 23:31:00,
2013-01-18 17:36:00,60.4,33.3,30.32,SSE,167,1.0,3.0,36,0.00,,---,0.00,VWS V14.01,2013-01-18 23:36:00,
2013-01-18 17:41:00,60.1,33.1,30.32,ESE,105,1.0,3.0,36,0.00,,---,0.00,VWS V14.01,2013-01-18 23:41:00,
2013-01-18 17:46:00,59.7,33.4,30.32,SE,142,0.0,3.0,37,0.00,,---,0.00,VWS V14.01,2013-01-18 23:46:00,
2013-01-18 17:51:00,59.2,33.0,30.32,SE,129,0.0,0.0,37,0.00,,---,0.00,VWS V14.01,2013-01-18 23:51:00,
2013-01-18 17:56:00,58.8,33.3,30.32,SE,128,0.0,1.0,38,0.00,,---,0.00,VWS V14.01,2013-01-18 23:56:00,
2013-01-18 18:01:00,58.4,32.9,30.32,SE,128,0.0,0.0,38,0.00,,---,0.00,VWS V14.01,2013-01-19 00:01:00,
2013-01-18 18:06:00,57.9,33.1,30.32,SE,129,0.0,1.0,39,0.00,,---,0.00,VWS V14.01,2013-01-19 00:06:00,
2013-01-18 18:11:00,57.3,32.6,30.32,ESE,107,1.0,1.0,39,0.00,,---,0.00,VWS V14.01,2013-01-19 00:11:00,
2013-01-18 18:16:00,56.6,32.6,30.33,ESE,107,0.0,1.0,40,0.00,,---,0.00,VWS V14.01,2013-01-19 00:16:00,
2013-01-18 18:21:00,56.1,32.7,30.33,ENE,70,0.0,1.0,41,0.00,,---,0.00,VWS V14.01,2013-01-19 00:21:00,
2013-01-18 18:26:00,55.8,33.1,30.33,SE,127,0.0,1.0,42,0.00,,---,0.00,VWS V14.01,2013-01-19 00:26:00,
2013-01-18 18:31:00,55.5,32.8,30.33,East,99,0.0,1.0,42,0.00,,---,0.00,VWS V14.01,2013-01-19 00:31:00,
2013-01-18 18:36:00,55.4,33.3,30.33,East,94,0.0,1.0,43,0.00,,---,0.00,VWS V14.01,2013-01-19 00:36:00,
2013-01-18 18:41:00,55.2,33.1,30.33,East,93,0.0,1.0,43,0.00,,---,0.00,VWS V14.01,2013-01-19 00:41:00,
2013-01-18 18:46:00,55.0,32.9,30.33,East,96,0.0,1.0,43,0.00,,---,0.00,VWS V14.01,2013-01-19 00:46:00,
2013-01-18 18:51:00,54.8,32.8,30.33,ESE,110,0.0,1.0,43,0.00,,---,0.00,VWS V14.01,2013-01-19 00:51:00,
2013-01-18 18:56:00,54.5,33.0,30.33,East,98,1.0,1.0,44,0.00,,---,0.00,VWS V14.01,2013-01-19 00:56:00,
2013-01-18 19:01:00,54.4,33.0,30.33,ENE,70,0.0,1.0,44,0.00,,---,0.00,VWS V14.01,2013-01-19 01:01:00,
2013-01-18 19:06:00,54.2,32.8,30.33,East,91,1.0,1.0,44,0.00,,---,0.00,VWS V14.01,2013-01-19 01:06:00,
2013-01-18 19:11:00,54.3,32.9,30.33,East,93,0.0,2.0,44,0.00,,---,0.00,VWS V14.01,2013-01-19 01:11:00,
2013-01-18 19:15:00,54.2,32.8,30.33,East,88,0.0,2.0,44,0.00,,---,0.00,VWS V14.01,2013-01-19 01:15:00,
2013-01-18 19:20:00,54.1,33.2,30.33,ENE,77,0.0,2.0,45,0.00,,---,0.00,VWS V14.01,2013-01-19 01:20:00,
2013-01-18 19:25:00,53.8,33.0,30.33,East,82,0.0,2.0,45,0.00,,---,0.00,VWS V14.01,2013-01-19 01:25:00,
2013-01-18 19:30:00,53.6,32.8,30.33,East,99,1.0,1.0,45,0.00,,---,0.00,VWS V14.01,2013-01-19 01:30:00,
2013-01-18 19:35:00,53.5,32.7,30.33,East,95,1.0,2.0,45,0.00,,---,0.00,VWS V14.01,2013-01-19 01:35:00,
2013-01-18 19:40:00,53.4,32.6,30.33,East,79,0.0,2.0,45,0.00,,---,0.00,VWS V14.01,2013-01-19 01:40:00,
2013-01-18 19:45:00,53.2,32.4,30.33,East,94,0.0,2.0,45,0.00,,---,0.00,VWS V14.01,2013-01-19 01:45:00,
2013-01-18 19:50:00,53.1,32.9,30.33,East,97,0.0,2.0,46,0.00,,---,0.00,VWS V14.01,2013-01-19 01:50:00,
2013-01-18 19:55:00,52.6,32.4,30.33,East,97,0.0,2.0,46,0.00,,---,0.00,VWS V14.01,2013-01-19 01:55:00,
2013-01-18 20:00:00,51.9,32.3,30.33,East,97,0.0,0.0,47,0.00,,---,0.00,VWS V14.01,2013-01-19 02:00:00,
2013-01-18 20:05:00,51.4,32.4,30.33,East,97,0.0,0.0,48,0.00,,---,0.00,VWS V14.01,2013-01-19 02:05:00,
2013-01-18 20:10:00,51.1,32.1,30.33,East,98,0.0,0.0,48,0.00,,---,0.00,VWS V14.01,2013-01-19 02:10:00,
2013-01-18 20:15:00,50.7,31.7,30.33,East,98,0.0,0.0,48,0.00,,---,0.00,VWS V14.01,2013-01-19 02:15:00,
2013-01-18 20:20:00,50.5,32.1,30.33,East,97,0.0,0.0,49,0.00,,---,0.00,VWS V14.01,2013-01-19 02:20:00,
2013-01-18 20:25:00,50.3,31.9,30.33,East,98,0.0,0.0,49,0.00,,---,0.00,VWS V14.01,2013-01-19 02:25:00,
2013-01-18 20:30:00,50.3,31.9,30.33,East,98,0.0,0.0,49,0.00,,---,0.00,VWS V14.01,2013-01-19 02:30:00,
2013-01-18 20:35:00,50.9,32.4,30.33,SE,131,0.0,1.0,49,0.00,,---,0.00,VWS V14.01,2013-01-19 02:35:00,
2013-01-18 20:40:00,51.3,32.3,30.33,ESE,119,0.0,1.0,48,0.00,,---,0.00,VWS V14.01,2013-01-19 02:40:00,
2013-01-18 20:45:00,51.5,32.5,30.33,ESE,119,0.0,1.0,48,0.00,,---,0.00,VWS V14.01,2013-01-19 02:45:00,
2013-01-18 20:50:00,51.6,32.6,30.33,ESE,121,0.0,1.0,48,0.00,,---,0.00,VWS V14.01,2013-01-19 02:50:00,
2013-01-18 20:55:00,51.6,32.6,30.33,SE,126,0.0,1.0,48,0.00,,---,0.00,VWS V14.01,2013-01-19 02:55:00,
2013-01-18 21:00:00,51.4,32.4,30.33,ESE,103,1.0,1.0,48,0.00,,---,0.00,VWS V14.01,2013-01-19 03:00:00,
2013-01-18 21:05:00,51.1,32.6,30.33,ESE,104,1.0,2.0,49,0.00,,---,0.00,VWS V14.01,2013-01-19 03:05:00,
2013-01-18 21:10:00,51.2,33.2,30.33,ESE,122,3.0,5.0,50,0.00,,---,0.00,VWS V14.01,2013-01-19 03:10:00,
2013-01-18 21:15:00,51.4,33.4,30.33,East,84,2.0,6.0,50,0.00,,---,0.00,VWS V14.01,2013-01-19 03:15:00,
2013-01-18 21:20:00,51.0,33.5,30.33,East,94,2.0,6.0,51,0.00,,---,0.00,VWS V14.01,2013-01-19 03:20:00,
2013-01-18 21:25:00,50.5,33.5,30.33,East,85,4.0,6.0,52,0.00,,---,0.00,VWS V14.01,2013-01-19 03:25:00,
2013-01-18 21:30:00,50.2,34.2,30.33,SSE,148,3.0,3.0,54,0.00,,---,0.00,VWS V14.01,2013-01-19 03:30:00,
2013-01-18 21:35:00,50.2,35.1,30.33,SE,132,1.0,6.0,56,0.00,,---,0.00,VWS V14.01,2013-01-19 03:35:00,
2013-01-18 21:40:00,50.1,35.5,30.33,East,90,3.0,7.0,57,0.00,,---,0.00,VWS V14.01,2013-01-19 03:40:00,
2013-01-18 21:45:00,49.6,35.5,30.33,SSE,149,3.0,7.0,58,0.00,,---,0.00,VWS V14.01,2013-01-19 03:45:00,
2013-01-18 21:50:00,49.3,36.0,30.33,East,98,2.0,7.0,60,0.00,,---,0.00,VWS V14.01,2013-01-19 03:50:00,
2013-01-18 21:55:00,48.8,36.0,30.33,ENE,78,3.0,7.0,61,0.00,,---,0.00,VWS V14.01,2013-01-19 03:55:00,
2013-01-18 22:00:00,48.4,36.0,30.33,ESE,107,1.0,1.0,62,0.00,,---,0.00,VWS V14.01,2013-01-19 04:00:00,
2013-01-18 22:05:00,48.1,36.1,30.33,ESE,122,2.0,3.0,63,0.00,,---,0.00,VWS V14.01,2013-01-19 04:05:00,
2013-01-18 22:10:00,47.9,36.3,30.33,ESE,107,1.0,3.0,64,0.00,,---,0.00,VWS V14.01,2013-01-19 04:10:00,
2013-01-18 22:15:00,47.6,36.4,30.33,ESE,111,2.0,3.0,65,0.00,,---,0.00,VWS V14.01,2013-01-19 04:15:00,
2013-01-18 22:20:00,47.3,36.2,30.33,SE,124,1.0,3.0,65,0.00,,---,0.00,VWS V14.01,2013-01-19 04:20:00,
2013-01-18 22:25:00,46.9,36.2,30.32,SE,134,0.0,3.0,66,0.00,,---,0.00,VWS V14.01,2013-01-19 04:25:00,
2013-01-18 22:30:00,46.6,36.6,30.33,ESE,115,0.0,1.0,68,0.00,,---,0.00,VWS V14.01,2013-01-19 04:30:00,
2013-01-18 22:35:00,46.5,36.9,30.33,ESE,107,1.0,3.0,69,0.00,,---,0.00,VWS V14.01,2013-01-19 04:35:00,
2013-01-18 22:40:00,46.7,37.1,30.32,ENE,74,2.0,4.0,69,0.00,,---,0.00,VWS V14.01,2013-01-19 04:40:00,
2013-01-18 22:45:00,46.9,37.3,30.32,ESE,122,4.0,4.0,69,0.00,,---,0.00,VWS V14.01,2013-01-19 04:45:00,
2013-01-18 22:50:00,46.9,37.3,30.32,East,97,3.0,4.0,69,0.00,,---,0.00,VWS V14.01,2013-01-19 04:50:00,
2013-01-18 22:55:00,46.8,37.2,30.32,East,89,2.0,4.0,69,0.00,,---,0.00,VWS V14.01,2013-01-19 04:55:00,
2013-01-18 23:00:00,46.6,37.3,30.32,East,92,1.0,1.0,70,0.00,,---,0.00,VWS V14.01,2013-01-19 05:00:00,
2013-01-18 23:01:00,46.6,37.3,30.32,East,88,1.0,1.0,70,0.00,,---,0.00,VWS V14.01,2013-01-19 05:01:00,
2013-01-18 23:03:00,46.5,37.3,30.32,East,82,1.0,3.0,70,0.00,,---,0.00,VWS V14.01,2013-01-19 05:03:00,
2013-01-18 23:08:00,46.1,36.9,30.32,ENE,68,0.0,3.0,70,0.00,,---,0.00,VWS V14.01,2013-01-19 05:08:00,
2013-01-18 23:13:00,45.6,36.8,30.32,ENE,67,0.0,3.0,71,0.00,,---,0.00,VWS V14.01,2013-01-19 05:13:00,
2013-01-18 23:18:00,45.4,36.9,30.32,ENE,68,0.0,3.0,72,0.00,,---,0.00,VWS V14.01,2013-01-19 05:18:00,
2013-01-18 23:23:00,45.3,36.8,30.32,ENE,68,0.0,3.0,72,0.00,,---,0.00,VWS V14.01,2013-01-19 05:23:00,
2013-01-18 23:28:00,45.2,37.1,30.31,ENE,68,0.0,3.0,73,0.00,,---,0.00,VWS V14.01,2013-01-19 05:28:00,
2013-01-18 23:33:00,45.0,36.9,30.31,ENE,70,0.0,1.0,73,0.00,,---,0.00,VWS V14.01,2013-01-19 05:33:00,
2013-01-18 23:38:00,44.8,37.0,30.31,ENE,70,0.0,1.0,74,0.00,,---,0.00,VWS V14.01,2013-01-19 05:38:00,
2013-01-18 23:43:00,44.7,36.9,30.31,ENE,70,0.0,1.0,74,0.00,,---,0.00,VWS V14.01,2013-01-19 05:43:00,
2013-01-18 23:48:00,44.7,37.3,30.31,East,90,1.0,1.0,75,0.00,,---,0.00,VWS V14.01,2013-01-19 05:48:00,
2013-01-18 23:53:00,44.7,37.6,30.31,East,90,0.0,1.0,76,0.00,,---,0.00,VWS V14.01,2013-01-19 05:53:00,
2013-01-18 23:58:00,44.7,37.9,30.31,East,90,0.0,1.0,77,0.00,,---,0.00,VWS V14.01,2013-01-19 05:58:00,